487  
SXUS55 KTWC 221015  
OSOTWC  
 
WEATHER ROUNDUP FOR SOUTHEAST ARIZONA  
NATIONAL WEATHER SERVICE TUCSON AZ  
315 AM MST WED NOV 22 2017  
 
AZZ504>506-514-221115-  
LOCATION SKY/WX TMP DP RH WIND PRES REMARKS  
TUCSON CLEAR 54 22 28 SE8 30.15F  
DAVIS-MONTHAN CLEAR 51 19 28 SE7 30.13S  
CHILDRENS PARK N/A N/A N/A 37 E3 PIMA CO DEQ  
ALVERNON/22ND N/A 54 N/A N/A SE1 PIMA CO DEQ  
CHERRY/GLENN N/A 52 N/A N/A E2 PIMA CO DEQ  
TANGERINE N/A 58 N/A N/A NE6 PIMA CO DEQ  
CONTL RANCH N/A 52 27 38 S3 PIMA CO DEQ  
GRANT/1ST N/A 53 24 32 SE2 PIMA CO DEQ  
CRAYCROFT/22ND N/A 54 24 31 SE3 PIMA CO DEQ  
GOLFLINKS/KOLB N/A N/A N/A N/A N/A PIMA CO DEQ  
AJO/12TH N/A 49 23 36 S2 PIMA CO DEQ  
FAIRGROUNDS N/A 59 N/A N/A E11 PIMA CO DEQ  
SAGUARO N/A 50 24 36 E3 *SABINO CYN  
SAN CARLOS N/A 63 24 22 CALM *SAN CARLOS  
GREEN VALLEY N/A 50 23 35 S6 PIMA CO DEQ  
HORSE CAMP CYN N/A 58 21 24 NE9G12 *ARAVAIPA CYN  
RINCON MTNS N/A 49 15 25 E11G20 *NR MANNING CAMP  

 
 
AZZ509>511-221115-  
LOCATION SKY/WX TMP DP RH WIND PRES REMARKS  
SAFFORD CLEAR 61 17 18 E10 30.26S  
STRAY HORSE N/A 47 20 34 CALM *  
TRAIL CABIN N/A 51 17 26 E3 *N OF GRANVILLE  
BLACK HILLS NOT AVBL  
DRY LAKE N/A 48 20 32 SE7G12 *NATANES MTNS  
NOON CREEK N/A 57 15 19 SW5G13 *PINALENO MTNS  
COLUMBINE N/A 35 18 50 CALM *PINALENO MTNS  
GUTHRIE N/A 49 16 26 E9G22 *SW OF GUTHRIE  

 
 
AZZ502-503-513-221115-  
LOCATION SKY/WX TMP DP RH WIND PRES REMARKS  
NOGALES CLEAR 48 21 34 E3 30.19S  
SELLS N/A 65 16 15 SE3G12 *  
SASABE N/A 44 21 40 CALM *ALTAR VLY  
HOPKINS N/A 56 16 20 E15G28 *SANTA RITA MTNS  
CARR CYN N/A 59 18 20 SE3G10 *W OF HEREFORD  

 
 
AZZ507-508-512-221115-  
LOCATION SKY/WX TMP DP RH WIND PRES REMARKS  
SIERRA VISTA PTCLDY 53 16 22 S3 30.26S  
DOUGLAS PTCLDY 58 16 19 E8 30.24S  
EMPIRE MTNS NOT AVBL  
MULESHOE RANCH N/A 62 17 17 NE13G23 *PRESERVE  
HEADQUARTERS N/A 57 15 19 NE6G12 *CHIRICAHUA MTNS  

 
   
............................NOTES..........................
 
 
THIS IS AN AUTOMATED COLLECTIVE WITH MINIMAL QUALITY CONTROL.  
PIMA CO DEQ SITES HAVE NONSTANDARD WIND SENSOR HEIGHTS.  
PIMA CO DEQ SITES DO NOT REPORT WIND GUSTS.  
* INDICATES WIND SENSORS LOCATED AT 20 FEET INSTEAD OF 33 FEET.   
.............................KEY...........................
 
 
SKY/WX - SKY CONDITION/WEATHER  
TMP - TEMPERATURE IN FAHRENHEIT  
DP - DEWPOINT IN FAHRENHEIT  
RH - RELATIVE HUMIDITY IN PERCENT  
WIND - DIRECTION AND SPEED IN MILES PER HOUR (MPH)  
VRB - VARIABLE WIND DIRECTION  
PRES - MEAN SEA LEVEL PRESSURE IN INCHES OF MERCURY  
F - FALLING PRESSURE R - RISING PRESSURE  
S - STEADY PRESSURE  
VSB - VISIBILITY IN MILES  
HX - HEAT INDEX IN FAHRENHEIT  
WCI - WIND CHILL INDEX IN FAHRENHEIT  
N/A - NOT AVAILABLE  
AFB - AIR FORCE BASE  
DAVIS-MONTHAN IS DAVIS-MONTHAN AIR FORCE BASE  
CYN - CANYON  
MTNS - MOUNTAINS  
NCA - NATIONAL CONSERVATION AREA  
NR - NEAR  
VLY - VALLEY  
CONTL - CONTINENTAL  
PIMA CO DEQ - PIMA COUNTY DEPT OF ENVIRONMENTAL QUALITY  
 
CLICK HERE TO GO TO PREVIOUS BULLETINS.

The Nexlab AZ Page Main Text Page